Tracking 35275 objects as of 8-Sep-2026
HD Live streaming from Space Station
objects crossing your sky now

COSMOS 799


COSMOS 799 is no longer on orbit


NORAD ID: 8616
Int'l Code: 1976-009A
Launch date: January 29, 1976
Source: Commonwealth of Independent States (former USSR) (CIS)
Launch site: TYURATAM MISSILE AND SPACE COMPLEX (TTMTR)
Decay date: 1976-02-10
Your satellite tracking list
Your tracking list is empty




NASA's NSSDC Master Catalog

Two Line Element Set (TLE):
1 08616U 76009  A 76040.61202383  .00082130 +00000-0 +00000-0 0  9999
2 08616 071.4040 268.5243 0073570 026.0581 334.4266 16.08569424001816
Source of the keplerian elements: AFSPC